Weather History for Cincinnati, OH

Change the Weather History Date:

Friday, May 24, 2013

  Actual Average Record
Temperature  
Mean Temperature 56 °F -  
Max Temperature 66 °F 77 °F 93 °F (1975)
Min Temperature 46 °F 56 °F 37 °F (1963)
Degree Days  
Heating Degree Days 9    
Growing Degree Days 6 (Base 50)    
Moisture  
Dew Point 41 °F    
Average Humidity 62    
Maximum Humidity 90    
Minimum Humidity 38    
Precipitation  
Precipitation 0.00 in - - ()
Sea Level Pressure  
Sea Level Pressure 30.26 in    
Wind  
Wind Speed 9 mph (North)    
Max Wind Speed 16 mph    
Max Gust Speed 23 mph    
Visibility 10 miles    
Events      
Averages and records for this station are not official NWS values.
T = Trace of Precipitation, MM = Missing Value Source: NWS Daily Summary

Daily Weather History Graph

Daily Weather History Graph

Search for Another Location

Airport:

Trip Planner

Search our weather history database for the weather conditions in past years. The results will help you decide how hot, cold, wet, or windy it might be!

Date:

Astronomy

May. 24, 2013 Rise Set
Actual Time 6:17 AM EDT 8:51 PM EDT
Civil Twilight 5:46 AM EDT 9:22 PM EDT
Nautical Twilight 5:08 AM EDT 10:01 PM EDT
Astronomical Twilight 4:25 AM EDT 10:44 PM EDT
Moon 8:33 PM EDT (5/24) 5:48 AM EDT (5/24)
Length of Visible Light 15h 36m
Length of Day
14h 34m
Full, 100% of the Moon is Illuminated
May 24
Full
May 25
Full
May 31
Last Quarter
Jun 8
New
Jun 16
First Quarter

Hourly Weather History & Observations

Time (EDT) Temp. Dew Point Humidity Pressure Visibility Wind Dir Wind Speed Gust Speed Precip Events Conditions
12:53 AM 53.1 °F 45.0 °F 74% 30.12 in 10.0 mi North 16.1 mph 23.0 mph N/A   Overcast
1:53 AM 52.0 °F 43.0 °F 71% 30.15 in 10.0 mi North 9.2 mph 17.3 mph N/A   Overcast
2:53 AM 52.0 °F 44.1 °F 74% 30.17 in 10.0 mi NNE 6.9 mph - N/A   Overcast
3:53 AM 51.1 °F 45.0 °F 80% 30.19 in 10.0 mi NNE 6.9 mph - 0.00 in   Overcast
4:03 AM 51.8 °F 44.6 °F 76% 30.19 in 10.0 mi NNE 5.8 mph - N/A   Overcast
4:24 AM 51.8 °F 44.6 °F 76% 30.20 in 10.0 mi NNE 10.4 mph - N/A   Overcast
4:53 AM 51.1 °F 44.1 °F 77% 30.20 in 10.0 mi NNE 6.9 mph - N/A   Overcast
5:53 AM 51.1 °F 42.1 °F 71% 30.22 in 10.0 mi NNE 9.2 mph - N/A   Overcast
6:28 AM 48.2 °F 39.2 °F 71% 30.23 in 10.0 mi NNE 8.1 mph - N/A   Mostly Cloudy
6:53 AM 50.0 °F 37.9 °F 63% 30.24 in 10.0 mi NNE 9.2 mph - N/A   Mostly Cloudy
7:15 AM 50.0 °F 37.4 °F 62% 30.25 in 10.0 mi NNE 9.2 mph - N/A   Overcast
7:30 AM 51.8 °F 39.2 °F 62% 30.26 in 10.0 mi NNE 4.6 mph - N/A   Overcast
7:53 AM 51.1 °F 39.0 °F 63% 30.27 in 10.0 mi NE 5.8 mph - N/A   Scattered Clouds
8:53 AM 53.1 °F 39.9 °F 61% 30.29 in 10.0 mi NNE 10.4 mph - N/A   Scattered Clouds
9:53 AM 52.0 °F 39.9 °F 63% 30.32 in 10.0 mi NNW 8.1 mph - N/A   Mostly Cloudy
10:53 AM 53.1 °F 39.0 °F 59% 30.33 in 10.0 mi North 10.4 mph - N/A   Mostly Cloudy
11:53 AM 57.0 °F 39.9 °F 53% 30.33 in 10.0 mi North 10.4 mph 16.1 mph N/A   Scattered Clouds
12:53 PM 60.1 °F 42.1 °F 51% 30.33 in 10.0 mi North 10.4 mph - N/A   Scattered Clouds
1:53 PM 62.1 °F 39.0 °F 43% 30.33 in 10.0 mi North 6.9 mph 16.1 mph N/A   Partly Cloudy
2:53 PM 63.0 °F 42.1 °F 46% 30.32 in 10.0 mi NNW 10.4 mph - N/A   Partly Cloudy
3:53 PM 64.0 °F 39.0 °F 40% 30.32 in 10.0 mi NNW 12.7 mph 20.7 mph N/A   Partly Cloudy
4:53 PM 64.9 °F 39.9 °F 40% 30.31 in 10.0 mi Variable 6.9 mph - N/A   Clear
5:53 PM 64.9 °F 39.0 °F 39% 30.30 in 10.0 mi North 8.1 mph - N/A   Clear
6:53 PM 64.0 °F 37.9 °F 38% 30.29 in 10.0 mi NNE 6.9 mph - N/A   Clear
7:53 PM 64.0 °F 39.0 °F 40% 30.28 in 10.0 mi NNW 3.5 mph - N/A   Clear
8:53 PM 57.0 °F 41.0 °F 55% 30.27 in 10.0 mi Calm Calm - N/A   Clear
9:53 PM 52.0 °F 44.1 °F 74% 30.29 in 10.0 mi Calm Calm - N/A   Clear
10:53 PM 48.9 °F 44.1 °F 83% 30.31 in 10.0 mi Calm Calm - N/A   Clear
11:53 PM 46.9 °F 44.1 °F 90% 30.32 in 10.0 mi Calm Calm - N/A   Clear